Waarnemingen

Advertentie
Mijn weer
Aviano, Italië (16036): temperatuur & dauwpunt: 11.02.2019 13:00:00 - 17.02.2019 13:00:00 (CET)Aviano, Italië (16036): windsnelheid: 11.02.2019 13:00:00 - 17.02.2019 13:00:00 (CET)Aviano, Italië (16036): windrichting: 11.02.2019 13:00:00 - 17.02.2019 13:00:00 (CET)Aviano, Italië (16036): luchtdruk: 11.02.2019 13:00:00 - 17.02.2019 13:00:00 (CET)Aviano, Italië (16036): zicht: 11.02.2019 13:00:00 - 17.02.2019 13:00:00 (CET)
Datum & Tijd tt [°C] td [°C] ff [km/u] ff [kn] dd ppp [hPa] vv [km]
17.02.2019 13:00:00 - - - - - - -
17.02.2019 12:00:00 - - - - - - -
17.02.2019 11:00:00 - - - - - - -
17.02.2019 10:00:00 - - - - - - -
17.02.2019 09:00:00 - - - - - - -
17.02.2019 08:00:00 - - - - - - -
17.02.2019 07:00:00 - - - - - - -
17.02.2019 06:00:00 - - - - - - -
17.02.2019 05:00:00 - - - - - - -
17.02.2019 04:00:00 - - - - - - -
17.02.2019 03:00:00 - - - - - - -
17.02.2019 02:00:00 - - - - - - -
17.02.2019 01:00:00 - - - - - - -
17.02.2019 00:00:00 - - - - - - -
16.02.2019 23:00:00 - - - - - - -
16.02.2019 22:00:00 3,0 1,8 13 7 NNO 1029,6 15
16.02.2019 21:00:00 4,0 2,0 9 5 NNO - 10
16.02.2019 20:00:00 6,0 3,0 8 4 NNO - 10
16.02.2019 19:00:00 8,4 2,2 8 4 NNO 1029,1 15
16.02.2019 18:00:00 12,0 4,0 4 2 WZW - 10
16.02.2019 17:00:00 13,0 4,0 5 3 ZW - 10
16.02.2019 16:00:00 15,0 4,7 8 4 WZW 1029,2 20
16.02.2019 15:00:00 15,0 3,0 2 1 Z - 10
16.02.2019 14:00:00 15,0 4,0 4 2 ZZO - 10
16.02.2019 13:00:00 14,0 4,3 8 4 Z 1030,9 25
16.02.2019 12:00:00 13,0 4,0 8 4 ZZW - 10
16.02.2019 11:00:00 12,0 4,0 2 1 ZW - 10
16.02.2019 10:00:00 9,6 3,8 2 1 NNW 1031,5 25
16.02.2019 09:00:00 5,0 3,0 5 3 NNO - 10
16.02.2019 08:00:00 1,0 1,0 9 5 NNO - 10
16.02.2019 07:00:00 1,0 1,0 8 4 N 1031,4 25
16.02.2019 06:00:00 1,0 0,0 9 5 N - 10
16.02.2019 05:00:00 1,0 0,0 9 5 NNO - 10
16.02.2019 04:00:00 - - - - - - -
16.02.2019 03:00:00 - - - - - - -
16.02.2019 02:00:00 - - - - - - -
16.02.2019 01:00:00 - - - - - - -
16.02.2019 00:00:00 - - - - - - -
15.02.2019 23:00:00 - - - - - - -
15.02.2019 22:00:00 5,0 3,4 13 7 ONO 1032,2 15
15.02.2019 21:00:00 4,0 3,0 9 5 O - 10
15.02.2019 20:00:00 5,0 2,0 8 4 N - 10
15.02.2019 19:00:00 7,0 1,9 8 4 N 1032,3 25
15.02.2019 18:00:00 11,0 2,0 2 1 W - 10
15.02.2019 17:00:00 14,0 2,0 4 2 Z - 10
15.02.2019 16:00:00 14,8 2,4 4 2 W 1030,4 25
15.02.2019 15:00:00 15,0 2,0 8 4 Z - 10
15.02.2019 14:00:00 14,0 2,0 9 5 ZW - 10
15.02.2019 13:00:00 14,0 2,0 5 3 ZW 1031,1 25
15.02.2019 12:00:00 12,0 2,0 8 4 Z - 10
15.02.2019 11:00:00 12,0 2,0 8 4 Z - 10
15.02.2019 10:00:00 11,0 2,3 4 2 OZO 1031,6 25
15.02.2019 09:00:00 4,0 1,0 5 3 NNO - 10
15.02.2019 08:00:00 1,0 -1,0 4 2 NNO - 10
15.02.2019 07:00:00 -0,8 -1,5 8 4 N 1031,8 20
15.02.2019 06:00:00 0,0 0,0 8 4 NNO - 10
15.02.2019 05:00:00 1,0 0,0 9 5 NNO - 10
15.02.2019 04:00:00 - - - - - - -
15.02.2019 03:00:00 - - - - - - -
15.02.2019 02:00:00 - - - - - - -
15.02.2019 01:00:00 - - - - - - -
15.02.2019 00:00:00 - - - - - - -
14.02.2019 23:00:00 - - - - - - -
14.02.2019 22:00:00 2,0 0,5 9 5 N 1033,0 15
14.02.2019 21:00:00 3,0 1,0 9 5 ONO - 10
14.02.2019 20:00:00 5,0 3,0 4 2 NW - 10
14.02.2019 19:00:00 6,2 3,0 2 1 WNW 1033,0 25
14.02.2019 18:00:00 8,0 3,0 5 3 NNO - 10
14.02.2019 17:00:00 12,0 4,0 4 2 W - 10
14.02.2019 16:00:00 12,2 3,4 4 2 WNW 1032,4 25
14.02.2019 15:00:00 12,0 3,0 4 2 W - 10
14.02.2019 14:00:00 11,0 3,0 5 3 ZW - 10
14.02.2019 13:00:00 10,0 2,4 4 2 Z 1034,1 20
14.02.2019 12:00:00 8,0 2,0 5 3 ZZW - 10
14.02.2019 11:00:00 6,0 2,0 2 1 WNW - 10
14.02.2019 10:00:00 4,4 2,4 2 1 O 1035,3 20
14.02.2019 09:00:00 2,0 1,0 2 1 N - 10
14.02.2019 08:00:00 -1,0 -2,0 5 3 NNO - 10
14.02.2019 07:00:00 -0,2 -1,2 4 2 N 1035,9 20
14.02.2019 06:00:00 0,0 -1,0 4 2 N - 10
14.02.2019 05:00:00 0,0 -1,0 5 3 NNO - 10
14.02.2019 04:00:00 - - - - - - -
14.02.2019 03:00:00 - - - - - - -
14.02.2019 02:00:00 - - - - - - -
14.02.2019 01:00:00 - - - - - - -
14.02.2019 00:00:00 - - - - - - -
13.02.2019 23:00:00 - - - - - - -
13.02.2019 22:00:00 2,4 0,5 8 4 NNW 1037,1 25
13.02.2019 21:00:00 3,0 1,0 9 5 N - 10
13.02.2019 20:00:00 4,0 2,0 4 2 NNO - 10
13.02.2019 19:00:00 5,8 2,1 4 2 Z 1036,1 25
13.02.2019 18:00:00 9,0 2,0 4 2 Z - 10
13.02.2019 17:00:00 10,0 2,0 9 5 ZZW - 10
13.02.2019 16:00:00 11,8 2,3 9 5 Z 1034,3 18
13.02.2019 15:00:00 12,0 2,0 2 1 Z - 10
13.02.2019 14:00:00 11,0 4,0 8 4 ZW - 10
13.02.2019 13:00:00 9,8 2,4 11 6 Z 1035,1 25
13.02.2019 12:00:00 9,0 2,0 5 3 ZO - 10
13.02.2019 11:00:00 8,0 2,0 8 4 W - 10
13.02.2019 10:00:00 7,0 1,9 2 1 O 1035,9 25
13.02.2019 09:00:00 3,0 1,0 5 3 N - 10
13.02.2019 08:00:00 0,0 -1,0 8 4 NNO - 10
13.02.2019 07:00:00 -0,2 -1,6 8 4 N 1034,8 25
13.02.2019 06:00:00 1,0 -1,0 9 5 NNO - 10
13.02.2019 05:00:00 2,0 -1,0 9 5 NO - 10
13.02.2019 04:00:00 - - - - - - -
13.02.2019 03:00:00 - - - - - - -
13.02.2019 02:00:00 - - - - - - -
13.02.2019 01:00:00 - - - - - - -
13.02.2019 00:00:00 - - - - - - -
12.02.2019 23:00:00 - - - - - - -
12.02.2019 22:00:00 2,2 -0,4 13 7 O 1029,4 20
12.02.2019 21:00:00 1,0 -2,0 9 5 NNO - 10
12.02.2019 20:00:00 3,0 0,0 11 6 NNO - 10
12.02.2019 19:00:00 4,0 0,5 5 3 N 1027,0 25
12.02.2019 18:00:00 8,0 3,0 4 2 WNW - 10
12.02.2019 17:00:00 10,0 2,0 2 1 ZZW - 10
12.02.2019 16:00:00 11,2 1,7 9 5 OZO 1024,5 10
12.02.2019 15:00:00 11,0 0,0 13 7 O - 10
12.02.2019 14:00:00 11,0 0,0 9 5 Z - 10
12.02.2019 13:00:00 11,0 0,4 8 4 ZZW 1022,6 25
12.02.2019 12:00:00 10,0 2,0 8 4 ZZO - 10
12.02.2019 11:00:00 9,0 5,0 8 4 ZO - 10
12.02.2019 10:00:00 7,6 3,7 2 1 W 1023,0 25
12.02.2019 09:00:00 4,0 -1,0 2 1 NO - 10
12.02.2019 08:00:00 0,0 -4,0 9 5 NO - 10
12.02.2019 07:00:00 -1,0 -4,9 5 3 N 1022,1 25
12.02.2019 06:00:00 0,0 -5,0 13 7 N - 10
12.02.2019 05:00:00 1,0 -5,0 11 6 ONO - 10
12.02.2019 04:00:00 - - - - - - -
12.02.2019 03:00:00 - - - - - - -
12.02.2019 02:00:00 - - - - - - -
12.02.2019 01:00:00 - - - - - - -
12.02.2019 00:00:00 - - - - - - -
11.02.2019 23:00:00 - - - - - - -
11.02.2019 22:00:00 3,6 -0,4 9 5 NNO 1016,8 25
11.02.2019 21:00:00 3,0 2,0 8 4 NNO - 10
11.02.2019 20:00:00 5,0 4,0 9 5 NNO - 10
11.02.2019 19:00:00 7,0 5,8 4 2 Z 1013,9 20
11.02.2019 18:00:00 7,0 4,0 9 5 W - 10
11.02.2019 17:00:00 9,0 6,0 5 3 Z - 10
11.02.2019 16:00:00 9,6 6,0 11 6 Z 1011,1 25
11.02.2019 15:00:00 10,0 6,0 9 5 ZZW - 10
11.02.2019 14:00:00 10,0 5,0 13 7 ZZW - 10
11.02.2019 13:00:00 9,0 4,6 16 9 ZZW 1009,2 15

tt = temperatuur
td = dauwpunt
ff = windsnelheid
dd = windrichting
ppp = luchtdruk
vv = zicht

Weerstations in de omgeving